Volver al catálogo

CAPELLA-17

ACADIA

ActivoCienciaSSO
NORAD 64583·PAYLOAD·🇺🇸 United States

Lanzado Jun 23, 2025 desde Vandenberg Space Force Base

Loading…

Próximos Pases (próximas 24 horas)

TLE

ActualizadoSource: Space-Track

Época: Sep 13, 2026, 06:34 UTC

1 64583U 25135BH  26256.27392435  .00004921  00000-0  48824-3 0  9993
2 64583  97.7756   8.6486 0006311  69.7493 290.4403 14.92199544 66989

Sigue CAPELLA-17 en tiempo real con AllMySat

Download on the App Store